Stations météo

réclame
Mon MeteoGroup
Termoli, Italie (16232): Température de l'air & dewpoint: 18.01.2018 10:00:00 - 24.01.2018 10:00:00 (CET)Termoli, Italie (16232): Vitesse du vent: 18.01.2018 10:00:00 - 24.01.2018 10:00:00 (CET)Termoli, Italie (16232): Direction du vent: 18.01.2018 10:00:00 - 24.01.2018 10:00:00 (CET)Termoli, Italie (16232): reduced air pressure: 18.01.2018 10:00:00 - 24.01.2018 10:00:00 (CET)Termoli, Italie (16232): visibility: 18.01.2018 10:00:00 - 24.01.2018 10:00:00 (CET)Termoli, Italie (16232): Ensoleillement: 18.01.2018 10:00:00 - 24.01.2018 10:00:00 (CET)
Date & Time tt [°C] td [°C] ff [km/h] ff [knt] dd ppp [hPa] vv [km] sd [min]
24.01.2018 10:00:00 11,4 3,2 18 10 WNW 1031,1 25 48
24.01.2018 09:00:00 - - - - - - - -
24.01.2018 08:00:00 - - - - - - - -
24.01.2018 07:00:00 8,8 3,2 22 12 WNW 1030,2 20 0
24.01.2018 06:00:00 - - - - - - - -
24.01.2018 05:00:00 - - - - - - - -
24.01.2018 04:00:00 9,2 4,2 22 12 NW 1029,0 25 -
24.01.2018 03:00:00 - - - - - - - -
24.01.2018 02:00:00 - - - - - - - -
24.01.2018 01:00:00 9,6 6,5 22 12 NNW 1028,4 25 -
24.01.2018 00:00:00 - - - - - - - -
23.01.2018 23:00:00 - - - - - - - -
23.01.2018 22:00:00 9,4 7,2 29 16 WNW 1027,2 25 -
23.01.2018 21:00:00 - - - - - - - -
23.01.2018 20:00:00 - - - - - - - -
23.01.2018 19:00:00 10,2 9,4 22 12 WNW 1023,9 20 0
23.01.2018 18:00:00 - - - - - - - -
23.01.2018 17:00:00 - - - - - - - -
23.01.2018 16:00:00 11,0 9,4 44 24 NNW 1023,6 12 12
23.01.2018 15:00:00 - - - - - - - -
23.01.2018 14:00:00 - - - - - - - -
23.01.2018 13:00:00 - - - - - - - -
23.01.2018 12:00:00 - - - - - - - -
23.01.2018 11:00:00 - - - - - - - -
23.01.2018 10:00:00 9,2 6,6 9 5 NNW 1020,8 10 0
23.01.2018 09:00:00 - - - - - - - -
23.01.2018 08:00:00 - - - - - - - -
23.01.2018 07:00:00 8,2 3,8 11 6 S 1017,8 20 -
23.01.2018 06:00:00 - - - - - - - -
23.01.2018 05:00:00 - - - - - - - -
23.01.2018 04:00:00 8,2 4,6 11 6 SSW 1016,0 20 -
23.01.2018 03:00:00 - - - - - - - -
23.01.2018 02:00:00 - - - - - - - -
23.01.2018 01:00:00 9,2 -0,1 15 8 SSW 1015,5 25 -
23.01.2018 00:00:00 - - - - - - - -
22.01.2018 23:00:00 - - - - - - - -
22.01.2018 22:00:00 8,0 -0,5 18 10 S 1015,5 25 -
22.01.2018 21:00:00 - - - - - - - -
22.01.2018 20:00:00 - - - - - - - -
22.01.2018 19:00:00 8,2 -0,3 22 12 SE 1014,4 25 -
22.01.2018 18:00:00 - - - - - - - -
22.01.2018 17:00:00 - - - - - - - -
22.01.2018 16:00:00 10,0 -2,0 11 6 E 1014,9 25 0
22.01.2018 15:00:00 - - - - - - - -
22.01.2018 14:00:00 - - - - - - - -
22.01.2018 13:00:00 10,2 -2,5 9 5 NNW 1015,6 20 42
22.01.2018 12:00:00 - - - - - - - -
22.01.2018 11:00:00 - - - - - - - -
22.01.2018 10:00:00 9,8 -2,5 15 8 NNE 1016,9 20 42
22.01.2018 09:00:00 - - - - - - - -
22.01.2018 08:00:00 - - - - - - - -
22.01.2018 07:00:00 9,6 -1,2 37 20 NNE 1015,5 20 0
22.01.2018 06:00:00 - - - - - - - -
22.01.2018 05:00:00 - - - - - - - -
22.01.2018 04:00:00 10,0 -0,5 41 22 ENE 1014,4 25 -
22.01.2018 03:00:00 - - - - - - - -
22.01.2018 02:00:00 - - - - - - - -
22.01.2018 01:00:00 10,6 0,6 37 20 N 1013,5 12 -
22.01.2018 00:00:00 - - - - - - - -
21.01.2018 23:00:00 - - - - - - - -
21.01.2018 22:00:00 9,4 7,2 34 18 W 1010,5 7 -
21.01.2018 21:00:00 - - - - - - - -
21.01.2018 20:00:00 - - - - - - - -
21.01.2018 19:00:00 10,4 6,4 29 16 WNW 1007,9 12 0
21.01.2018 18:00:00 - - - - - - - -
21.01.2018 17:00:00 - - - - - - - -
21.01.2018 16:00:00 10,2 9,1 34 18 NW 1005,5 12 0
21.01.2018 15:00:00 - - - - - - - -
21.01.2018 14:00:00 - - - - - - - -
21.01.2018 13:00:00 13,0 10,0 22 12 W 1003,2 20 42
21.01.2018 12:00:00 - - - - - - - -
21.01.2018 11:00:00 - - - - - - - -
21.01.2018 10:00:00 14,2 3,4 15 8 SSW 1001,6 25 48
21.01.2018 09:00:00 - - - - - - - -
21.01.2018 08:00:00 - - - - - - - -
21.01.2018 07:00:00 11,6 1,0 35 19 S 1002,0 25 -
21.01.2018 06:00:00 - - - - - - - -
21.01.2018 05:00:00 - - - - - - - -
21.01.2018 04:00:00 10,4 1,8 15 8 SSE 1005,2 15 -
21.01.2018 03:00:00 - - - - - - - -
21.01.2018 02:00:00 - - - - - - - -
21.01.2018 01:00:00 9,6 4,4 13 7 SSE 1007,0 15 -
21.01.2018 00:00:00 - - - - - - - -
20.01.2018 23:00:00 - - - - - - - -
20.01.2018 22:00:00 9,2 7,2 15 8 SE 1009,3 20 -
20.01.2018 21:00:00 - - - - - - - -
20.01.2018 20:00:00 - - - - - - - -
20.01.2018 19:00:00 10,2 7,3 15 8 SSW 1011,6 20 -
20.01.2018 18:00:00 - - - - - - - -
20.01.2018 17:00:00 - - - - - - - -
20.01.2018 16:00:00 14,0 7,1 0 0 N 1011,5 25 60
20.01.2018 15:00:00 - - - - - - - -
20.01.2018 14:00:00 - - - - - - - -
20.01.2018 13:00:00 12,8 8,7 15 8 NW 1012,3 20 60
20.01.2018 12:00:00 - - - - - - - -
20.01.2018 11:00:00 - - - - - - - -
20.01.2018 10:00:00 9,8 9,4 18 10 WNW 1013,5 7 0
20.01.2018 09:00:00 - - - - - - - -
20.01.2018 08:00:00 - - - - - - - -
20.01.2018 07:00:00 11,0 10,1 22 12 WNW 1011,6 4,0 0
20.01.2018 06:00:00 - - - - - - - -
20.01.2018 05:00:00 - - - - - - - -
20.01.2018 04:00:00 11,2 11,2 46 25 NW 1009,7 20 -
20.01.2018 03:00:00 - - - - - - - -
20.01.2018 02:00:00 - - - - - - - -
20.01.2018 01:00:00 14,0 8,0 26 14 SW 1009,8 30 -
20.01.2018 00:00:00 - - - - - - - -
19.01.2018 23:00:00 - - - - - - - -
19.01.2018 22:00:00 14,0 8,0 34 18 WSW 1010,0 30 -
19.01.2018 21:00:00 - - - - - - - -
19.01.2018 20:00:00 - - - - - - - -
19.01.2018 19:00:00 14,8 8,1 31 17 SSW 1009,4 20 -
19.01.2018 18:00:00 - - - - - - - -
19.01.2018 17:00:00 - - - - - - - -
19.01.2018 16:00:00 16,4 8,6 39 21 SSW 1008,4 20 0
19.01.2018 15:00:00 - - - - - - - -
19.01.2018 14:00:00 - - - - - - - -
19.01.2018 13:00:00 17,4 8,8 37 20 SSW 1008,9 25 6
19.01.2018 12:00:00 - - - - - - - -
19.01.2018 11:00:00 - - - - - - - -
19.01.2018 10:00:00 15,4 9,3 16 9 S 1010,6 40 60
19.01.2018 09:00:00 - - - - - - - -
19.01.2018 08:00:00 - - - - - - - -
19.01.2018 07:00:00 12,8 8,1 8 4 S 1011,0 45 0
19.01.2018 06:00:00 - - - - - - - -
19.01.2018 05:00:00 - - - - - - - -
19.01.2018 04:00:00 12,0 8,1 8 4 SW 1011,6 35 -
19.01.2018 03:00:00 - - - - - - - -
19.01.2018 02:00:00 - - - - - - - -
19.01.2018 01:00:00 11,8 6,5 5 3 SSW 1012,8 30 -
19.01.2018 00:00:00 - - - - - - - -
18.01.2018 23:00:00 - - - - - - - -
18.01.2018 22:00:00 11,8 3,8 15 8 SSW 1013,8 30 -
18.01.2018 21:00:00 - - - - - - - -
18.01.2018 20:00:00 - - - - - - - -
18.01.2018 19:00:00 12,8 -1,5 15 8 SW 1014,2 30 0
18.01.2018 18:00:00 - - - - - - - -
18.01.2018 17:00:00 - - - - - - - -
18.01.2018 16:00:00 13,0 -6,5 11 6 S 1015,2 50 12
18.01.2018 15:00:00 - - - - - - - -
18.01.2018 14:00:00 - - - - - - - -
18.01.2018 13:00:00 14,6 -16,7 22 12 E 1019,9 50 60
18.01.2018 12:00:00 - - - - - - - -
18.01.2018 11:00:00 - - - - - - - -
18.01.2018 10:00:00 11,0 -18,4 4 2 SW 1019,4 50 60

tt = Température de l'air
td = dewpoint
ff = Vitesse du vent
dd = Direction du vent
ppp = reduced air pressure
vv = visibility
sd = Ensoleillement

stations d'obs. à proximité